Regional Weather Roundup
Issued by NWS Little Rock, AR

Home | Current Version | Previous Version | Text Only | Print | Product List | Glossary Off
Versions: 1 2 3 4 5 6 7 8 9 10 11 12 13 14 15 16 17 18 19 20 21 22 23 24 25 26 27 28 29 30 31 32 33 34 35 36 37 38 39 40 41 42 43 44 45 46 47 48 49 50

000
ASUS44 KLZK 312205
RWRLZK

WEATHER ROUNDUP FOR ARKANSAS
NATIONAL WEATHER SERVICE LITTLE ROCK AR
500 PM CDT THU JUL 31 2014

NOTE: "FAIR" INDICATES FEW OR NO CLOUDS BELOW 12,000 FEET WITH NO
SIGNIFICANT WEATHER AND/OR OBSTRUCTIONS TO VISIBILITY.

ARZ001-003-010-029-312300-
NORTHWEST ARKANSAS

CITY           SKY/WX    TMP DP  RH WIND       PRES   REMARKS
FAYETTEVILLE   CLOUDY    71  66  84 CALM      30.08F
FORT SMITH     CLOUDY    72  65  78 E8        30.05F
HARRISON       CLOUDY    70  65  84 S3        30.09F
BENTONVILLE    CLOUDY    70  64  83 SE3       30.09F
ROGERS         CLOUDY    69  66  90 SE5       30.10S
SILOAM SPGS    PTSUNNY   72  63  73 CALM      30.09F
HIGHFILL       CLOUDY    69  67  93 CALM      30.08F
SPRINGDALE     CLOUDY    70  66  88 E3        30.10F FOG
$$

ARZ004-005-016-312300-
NORTH CENTRAL ARKANSAS

CITY           SKY/WX    TMP DP  RH WIND       PRES   REMARKS
BATESVILLE     PTSUNNY   73  66  78 N3        30.08S
FLIPPIN        CLOUDY    68  66  94 SE3       30.08F
MTN HOME       CLOUDY    69  67  93 S3        30.08S
$$

ARZ040-041-312300-
WEST CENTRAL ARKANSAS

CITY           SKY/WX    TMP DP  RH WIND       PRES   REMARKS
MENA           CLOUDY    70  66  88 E8        30.06S
MOUNT IDA      CLOUDY    69  65  86 SE3       30.04F
$$

ARZ009-017-025-026-028-312300-
NORTHEAST ARKANSAS

CITY           SKY/WX    TMP DP  RH WIND       PRES   REMARKS
JONESBORO      CLOUDY    74  66  76 E5        30.07F
NEWPORT        LGT RAIN  73  68  84 CALM      30.09F
WALNUT RIDGE   CLOUDY    73  64  73 E5        30.08S
BLYTHEVILLE    CLOUDY    77  67  71 N3        30.08F
$$

ARZ022-023-033-042-044-312300-
CENTRAL ARKANSAS

CITY           SKY/WX    TMP DP  RH WIND       PRES   REMARKS
LITTLE ROCK    CLOUDY    74  65  73 NE8       30.06F
N LITTLE ROCK  CLOUDY    73  69  87 E8        30.06F
JACKSONVILLE   LGT RAIN  72  68  88 E6        30.07S
SEARCY         LGT RAIN  72  68  87 NW3       30.09S
HOT SPRINGS    LGT RAIN  67  65  93 SE5       30.07S FOG
RUSSELLVILLE   CLOUDY    73  66  78 E3        30.06F
CLINTON        CLOUDY    73  66  78 CALM      30.08S
$$

ARZ036-312300-
EAST ARKANSAS

CITY           SKY/WX    TMP DP  RH WIND       PRES   REMARKS
WEST MEMPHIS   PTSUNNY   77  68  73 VRB5      30.06F
$$

ARZ050-053-066-070-073-312300-
SOUTHWEST ARKANSAS

CITY           SKY/WX    TMP DP  RH WIND       PRES   REMARKS
ARKADELPHIA    LGT RAIN  68  67  96 VRB3      30.06F FOG
CAMDEN         CLOUDY    72  66  83 NE5       30.04R
TEXARKANA      LGT RAIN  70  70 100 E6        30.00F FOG
EL DORADO      CLOUDY    74  69  85 NE10      30.02F
DE QUEEN       LGT RAIN  68  66  93 E9        30.01S FOG
$$

ARZ056-057-069-312300-
SOUTHEAST ARKANSAS

CITY           SKY/WX    TMP DP  RH WIND       PRES   REMARKS
PINE BLUFF     LGT RAIN  73  67  81 NE3       30.06F
STUTTGART      CLOUDY    73  66  78 NE8       30.07F
MONTICELLO     LGT RAIN  74  69  85 NE8       30.05S

$$





USA.gov is the U.S. government's official web portal to all federal, state and local government web resources and services.